Weather Roundup
Issued by NWS

Home | Current Version | Previous Version | Graphics & Text | Print | Product List | Glossary Off
Versions: 1 2 3 4 5 6 7 8 9 10 11 12 13 14 15 16 17 18 19 20 21 22 23 24 25 26 27 28 29 30 31 32 33 34 35 36 37 38 39 40 41 42 43 44 45 46 47 48 49 50

000
NZUS93 KARX 232010
HRRWXR

CURRENT HOURLY OBSERVATIONS ACROSS
MUCH OF THE UPPER MISSISSIPPI VALLEY
NATIONAL WEATHER SERVICE LA CROSSE WI
300 PM CDT TUE MAY 23 2017


...SOUTHEAST MINNESOTA...


CITY           SKY/WX    TMP DP  RH WIND       PRES   REMARKS
ROCHESTER      LGT RAIN  50  50 100 N12       29.78F
ROCHESTER/MAYO NOT AVBL
WINONA         CLOUDY    54  48  82 N3        29.76S
AUSTIN         LGT RAIN  52  48  87 N6        29.78S
ALBERT LEA     LGT RAIN  54  46  76 NE7G16    29.79R
DODGE CENTER   LGT RAIN  50  46  87 N8        29.79S
PRESTON        CLOUDY    50  47  91 N7        29.76F
OWATONNA       LGT RAIN  54  48  82 NE8       29.79S
FARIBAULT      DRIZZLE   54  48  82 N8        29.80S
$$

...ELSEWHERE IN MINNESOTA...


CITY           SKY/WX    TMP DP  RH WIND       PRES   REMARKS
MINNEAPOLIS    CLOUDY    59  46  62 E12       29.80S
INTNL FALLS    CLOUDY    53  43  68 NE8       29.95F
DULUTH         CLOUDY    56  45  66 E10       29.86F
RED WING       DRIZZLE   55  46  71 NE9       29.79S
REDWOOD FALLS  CLOUDY    59  46  62 N9        29.82F
MANKATO        LGT RAIN  53  48  83 N12       29.81S
WORTHINGTON    LGT RAIN  51  46  83 N20G28    29.84R
FAIRMONT       CLOUDY    54  47  77 N14G21    29.80S
$$

...SOUTHWEST WISCONSIN...


CITY           SKY/WX    TMP DP  RH WIND       PRES   REMARKS
LA CROSSE      CLOUDY    59  51  75 N9        29.72S
PRAIRIE DU CHI CLOUDY    60  49  65 NW9       29.71F
BOSCOBEL       CLOUDY    62  50  64 W6        29.71S
LONE ROCK      CLOUDY    62  52  69 CALM      29.70F
PLATTEVILLE    CLOUDY    59  53  79 SW6       29.73S
FORT MC COY    CLOUDY    58  52  82 NW5       29.72F
CAMP DOUGLAS   PTSUNNY   61  54  77 E6        29.71F
MAUSTON-NEW LI MOCLDY    63  52  67 E3        29.69F HAZE
VIROQUA        CLOUDY    55  53  93 MISG      29.73S
WIS DELLS      PTSUNNY   63  51  64 S3        29.70F
$$

...ELSEWHERE IN WISCONSIN...


CITY           SKY/WX    TMP DP  RH WIND       PRES   REMARKS
MILWAUKEE      CLOUDY    63  54  72 VRB5      29.72F
MADISON        CLOUDY    62  50  64 W5        29.70F
GREEN BAY      CLOUDY    54  50  86 NE16      29.78S
EAU CLAIRE     CLOUDY    58  47  66 NE13      29.77S
BLACK RVR FLS  CLOUDY    59  47  63 NE9       29.73S
MEDFORD        CLOUDY    55  46  71 E12       29.77S
WAUSAU         CLOUDY    58  43  57 NE10      29.76F
WIS RAPIDS     CLOUDY    58  46  64 NE15      29.75S
MARSHFIELD     CLOUDY    59  44  57 NE17G26   29.74F
RICE LAKE      CLOUDY    55  46  69 CALM      29.83S
$$

...NORTHEAST IOWA...


CITY           SKY/WX    TMP DP  RH WIND       PRES   REMARKS
WATERLOO       CLOUDY    57  47  69 W13       29.75S
DUBUQUE        CLOUDY    58  50  75 SW5       29.72F
DECORAH          N/A     55  50  82 NW8       29.73S
MASON CITY     CLOUDY    58  48  69 NW12      29.78F
CHARLES CITY   CLOUDY    55  50  82 N12       29.76S
OELWEIN        CLOUDY    55  52  88 NW13      29.75F
$$

...ELSEWHERE IN IOWA...


CITY           SKY/WX    TMP DP  RH WIND       PRES   REMARKS
DES MOINES     PTSUNNY   63  44  50 NW14G22   29.77F
IOWA CITY      CLOUDY    63  48  58 W9        29.74F
FORT DODGE     CLOUDY    55  48  76 N10G16    29.80F
MARSHALLTOWN   CLOUDY    56  49  77 NW3       29.76F
CEDAR RAPIDS   CLOUDY    62  48  60 NW13      29.72F
$$

...NORTHERN ILLINOIS...


CITY           SKY/WX    TMP DP  RH WIND       PRES   REMARKS
CHICAGO-OHARE  LGT RAIN  61  55  81 CALM      29.73F
CHICAGO-MIDWAY CLOUDY    65  53  65 SE5       29.73F
MOLINE         PTSUNNY   61  55  81 NW9       29.72F
ROCKFORD       LGT RAIN  57  55  93 W6        29.74S FOG
PEORIA         LGT RAIN  61  56  83 SW5       29.74S
$$

NOTE: "FAIR" INDICATES FEW OR NO CLOUDS BELOW 12,000 FEET WITH NO
SIGNIFICANT WEATHER AND/OR OBSTRUCTIONS TO VISIBILITY. WIND
SPEEDS ARE IN MILES-PER-HOUR.




USA.gov is the U.S. government's official web portal to all federal, state and local government web resources and services.